Time,TemperatureF,DewpointF,PressureIn,WindDirection,WindDirectionDegrees,WindSpeedMPH,WindSpeedGustMPH,Humidity,HourlyPrecipIn,Conditions,Clouds,dailyrainin,SoftwareType,DateUTC
2014-04-24 00:23:00,39.0,25.0,30.01,NNW,348,6.0,11.0,56,0.00,,,0.22,,2014-04-24 04:23:00,
2014-04-24 00:43:00,39.0,25.0,30.01,NNW,336,9.0,15.0,57,0.00,,,0.22,,2014-04-24 04:43:00,
2014-04-24 00:53:00,39.0,25.0,30.02,North,360,5.0,11.0,57,0.00,,,0.22,,2014-04-24 04:53:00,
2014-04-24 01:13:00,39.0,25.0,30.02,North,355,6.0,10.0,57,0.00,,,0.22,,2014-04-24 05:13:00,
2014-04-24 01:23:00,39.0,25.0,30.02,North,355,5.0,11.0,57,0.00,,,0.22,,2014-04-24 05:23:00,
2014-04-24 01:52:00,38.0,26.0,30.03,North,360,4.0,11.0,61,0.00,,,0.22,,2014-04-24 05:52:00,
2014-04-24 02:22:00,37.0,26.0,30.03,North,350,3.0,13.0,63,0.00,,,0.22,,2014-04-24 06:22:00,
2014-04-24 02:43:00,37.0,26.0,30.03,North,5,4.0,6.0,64,0.00,,,0.22,,2014-04-24 06:43:00,
2014-04-24 02:52:00,37.0,26.0,30.03,NNW,343,3.0,6.0,64,0.00,,,0.22,,2014-04-24 06:52:00,
2014-04-24 03:22:00,36.0,25.0,30.03,NNW,344,2.0,4.0,63,0.00,,,0.22,,2014-04-24 07:22:00,
2014-04-24 03:42:00,35.0,24.0,30.04,NNW,344,3.0,5.0,64,0.00,,,0.22,,2014-04-24 07:42:00,
2014-04-24 03:52:00,35.0,25.0,30.04,North,351,2.0,6.0,66,0.00,,,0.22,,2014-04-24 07:52:00,
2014-04-24 04:22:00,34.0,24.0,30.04,North,350,2.0,3.0,67,0.00,,,0.21,,2014-04-24 08:22:00,
2014-04-24 04:53:00,34.0,25.0,30.04,North,350,2.0,4.0,68,0.00,,,0.21,,2014-04-24 08:53:00,
2014-04-24 05:22:00,33.0,24.0,30.05,North,350,1.0,3.0,70,0.00,,,0.17,,2014-04-24 09:22:00,
2014-04-24 05:43:00,33.0,25.0,30.06,North,350,1.0,3.0,71,0.00,,,0.17,,2014-04-24 09:43:00,
2014-04-24 05:54:00,33.0,25.0,30.06,North,350,2.0,4.0,72,0.00,,,0.17,,2014-04-24 09:54:00,
2014-04-24 06:23:00,33.0,25.0,30.07,North,350,2.0,4.0,72,0.00,,,0.13,,2014-04-24 10:23:00,
2014-04-24 06:43:00,33.0,25.0,30.08,North,349,2.0,5.0,72,0.00,,,0.13,,2014-04-24 10:43:00,
2014-04-24 06:54:00,33.0,25.0,30.09,North,350,2.0,5.0,72,0.00,,,0.13,,2014-04-24 10:54:00,
2014-04-24 07:12:00,33.0,25.0,30.09,North,350,3.0,4.0,72,0.00,,,0.11,,2014-04-24 11:12:00,
2014-04-24 07:22:00,33.0,25.0,30.10,NNW,346,2.0,5.0,72,0.00,,,0.11,,2014-04-24 11:22:00,
2014-04-24 07:42:00,33.0,25.0,30.10,NNW,346,4.0,5.0,72,0.00,,,0.11,,2014-04-24 11:42:00,
2014-04-24 07:52:00,35.0,26.0,30.11,NNW,344,4.0,7.0,69,0.00,,,0.11,,2014-04-24 11:52:00,